Temperature
22 22 21 21 25 26 24 26 31 32 32 32 32 31 29 28 27 26 25 24 22 22 22 22 21 21 20 20 20 20 20 20 19 19 19 19 19 19 19 19 19 19 19 19 19 19 19 19 19
22 21 22 25 27 25 23 25 30 32 33 33 32 31 29 27 27 26 25 23 22 22 22 22 21 21 20 20 20 20 20 19 19 19 19 19 19 19 19 19 19 19 19 19 19 19 19 19 19
22 22 25 29 29 28 26 29 31 33 33 33 31 30 28 26 26 25 24 23 22 21 21 22 21 21 20 20 20 20 19 19 19 19 19 19 19 19 19 19 19 19 19 19 19 19 19 19 19
22 25 27 30 31 32 32 32 32 33 33 32 31 28 25 24 25 24 24 23 21 20 21 21 21 20 20 20 19 19 19 19 19 19 19 19 19 19 19 19 19 19 18 18 18 18 18 19 19
23 27 29 30 32 32 32 33 33 32 31 31 30 27 24 24 25 24 24 23 22 21 21 21 21 20 20 20 19 19 19 19 19 19 19 19 19 19 19 19 19 18 18 18 18 18 18 18 19
26 29 30 31 32 32 32 32 33 32 31 29 27 26 23 23 24 25 25 24 22 21 21 21 21 20 20 19 19 19 19 19 19 19 19 19 19 19 19 19 19 18 18 18 18 18 18 18 19
27 29 30 31 32 32 31 31 32 30 29 29 27 26 23 23 24 25 24 24 22 21 21 21 20 20 20 19 19 19 19 19 19 19 19 19 19 19 19 19 19 18 18 18 18 18 18 18 18
28 29 30 31 32 32 31 30 29 28 27 27 27 26 23 22 23 24 24 23 22 21 20 20 19 20 19 19 19 19 19 19 19 19 19 19 19 19 19 18 18 18 18 18 18 18 18 18 18
28 29 29 31 32 32 30 28 27 28 27 25 26 26 23 22 23 24 23 23 22 21 21 20 19 19 19 19 19 19 19 19 19 18 18 19 18 18 18 18 18 18 18 18 18 18 18 18 18
29 29 30 32 32 31 30 28 27 28 27 25 23 23 22 22 23 23 23 22 21 21 20 20 19 19 19 19 18 18 18 18 18 18 18 18 18 18 18 18 18 18 18 18 18 18 18 18 18
30 30 31 32 31 30 29 28 28 28 25 23 22 22 22 23 23 23 23 22 21 20 20 20 19 19 19 19 18 18 18 18 18 18 18 18 18 18 18 18 18 18 18 18 18 18 18 18 18
31 31 31 31 31 30 30 29 28 26 23 22 22 22 23 23 23 23 23 22 21 20 20 19 19 19 19 19 19 18 18 18 18 18 18 18 18 17 17 17 17 17 17 17 18 18 17 17 17
30 30 30 29 29 30 29 29 27 24 22 22 22 22 23 23 23 22 22 21 20 20 19 19 19 19 19 19 18 18 18 18 18 17 17 17 17 17 17 17 17 17 17 17 17 17 17 17 17
30 29 28 27 28 29 29 28 26 23 22 22 23 23 23 23 22 22 21 20 20 19 19 19 19 19 19 18 18 18 18 18 17 17 16 16 16 16 16 16 16 17 16 16 17 17 17 17 17
29 28 26 26 26 28 28 26 22 22 23 23 23 22 22 22 21 21 20 20 19 19 19 18 18 18 18 18 18 18 17 17 17 16 16 16 16 16 16 16 16 16 16 16 16 16 16 16 16
29 26 24 25 26 27 27 22 20 22 22 23 23 22 21 20 20 20 20 19 19 18 18 18 18 18 18 18 18 17 17 17 16 16 15 15 15 15 15 15 15 15 15 15 16 16 16 16 16
27 25 24 24 26 27 26 21 21 22 22 23 22 22 21 20 20 19 19 18 18 18 18 18 18 18 18 18 17 17 17 16 16 16 15 15 14 14 14 14 14 15 15 15 15 15 15 15 15
28 27 26 25 26 27 26 23 22 22 22 22 22 21 20 20 19 19 19 18 18 18 18 18 18 18 18 17 17 17 16 16 16 15 15 15 14 13 14 14 14 14 14 14 14 15 15 15 15
30 28 27 26 28 27 26 24 23 22 22 22 22 21 20 20 19 19 19 18 18 18 18 18 18 18 17 17 17 16 16 16 16 15 15 14 13 13 13 13 13 14 14 14 14 14 14 14 15
29 28 28 27 28 28 26 25 25 24 23 22 21 21 20 20 19 19 19 19 18 18 18 18 18 18 17 17 17 16 16 16 16 15 15 14 13 13 13 13 13 13 13 13 13 13 13 14 14
28 28 28 28 28 26 24 24 24 24 24 23 22 21 21 20 20 19 19 19 19 19 19 19 18 18 17 17 16 16 16 16 15 15 15 14 14 13 12 12 12 12 13 13 13 13 13 13 14
28 29 30 29 27 24 24 23 24 25 24 24 23 22 21 21 20 20 20 20 20 19 19 19 18 18 17 17 16 16 16 15 15 15 14 14 13 13 12 12 12 12 12 12 12 13 13 13 13
30 30 28 26 25 23 24 25 24 25 24 25 24 23 22 22 21 21 20 20 20 20 20 19 18 18 17 17 16 16 15 15 15 15 14 14 13 13 13 12 12 12 12 12 12 12 12 12 12
31 29 26 23 22 21 23 25 25 25 25 26 25 24 23 23 22 22 21 21 21 21 20 20 19 18 17 17 16 15 15 15 15 15 14 14 13 14 13 13 12 12 12 12 12 12 11 11 12
30 28 24 21 20 22 26 27 26 27 28 27 26 25 24 24 23 22 22 22 21 21 21 20 19 18 17 17 16 16 15 15 14 14 14 13 13 14 13 13 13 12 12 12 11 11 11 11 11
30 29 27 25 25 26 28 27 27 29 28 28 27 26 25 24 24 23 23 22 22 21 21 20 19 18 17 17 16 16 15 15 14 14 14 14 13 13 13 13 12 12 12 11 11 11 11 11 11
30 29 30 29 28 26 27 28 28 29 28 28 27 26 26 25 25 24 23 23 22 21 21 20 19 18 18 17 16 16 15 15 15 14 14 13 13 13 13 12 12 12 11 11 11 11 11 11 11
31 30 30 28 27 26 24 25 26 27 28 28 28 27 26 26 25 25 24 23 22 21 21 20 19 18 17 17 16 16 15 15 14 14 13 13 13 13 13 12 12 12 11 11 11 11 11 11 11
29 29 29 29 28 26 23 24 27 28 28 28 28 28 27 26 26 25 24 24 23 22 21 20 19 18 17 17 16 16 15 15 14 14 13 13 13 12 12 12 12 12 11 11 11 11 11 11 11
29 29 29 28 27 27 26 26 29 29 30 29 29 28 27 27 26 26 24 23 23 22 21 20 19 18 18 17 16 16 15 15 14 14 13 13 13 12 12 12 12 11 11 11 11 11 11 11 10
Wind_Speed
13 14 11 8 6 4 7 13 6 11 11 13 14 16 19 18 12 11 14 23 24 20 19 18 17 15 14 13 13 12 12 12 12 12 12 12 11 10 9 8 8 8 8 8 8 8 8 8 8
13 14 10 7 8 4 2 10 4 9 9 11 14 19 20 17 16 15 17 21 22 20 18 18 17 16 15 14 14 14 13 13 13 13 12 12 11 9 8 7 7 6 6 6 6 6 7 7 6
14 16 9 8 13 8 8 7 3 4 6 9 12 15 12 11 13 13 16 20 21 19 20 18 17 16 15 14 14 14 14 13 13 12 11 10 9 8 7 6 5 5 5 5 5 5 5 5 5
8 11 8 11 18 10 2 1 1 3 6 9 14 13 9 8 12 17 17 21 22 20 19 18 16 15 14 14 13 13 12 12 11 10 9 8 7 6 5 4 4 4 4 4 4 4 4 4 3
11 8 13 17 20 7 5 4 3 3 5 6 14 14 12 9 16 17 17 20 19 20 19 18 16 14 13 12 12 11 10 10 9 8 7 5 5 4 3 3 2 2 3 3 3 3 3 3 2
9 11 15 18 17 4 4 8 3 4 7 11 16 16 10 10 14 15 17 17 20 20 19 18 16 14 12 11 10 9 8 7 6 5 4 3 2 2 2 2 2 2 3 3 3 3 3 4 4
12 13 18 22 18 5 3 7 2 3 3 6 12 12 12 13 12 14 15 16 19 19 17 16 16 14 12 11 10 8 7 6 4 3 3 2 3 3 4 4 4 3 3 3 4 4 4 5 5
12 13 19 20 20 7 2 3 4 5 4 5 8 10 14 15 12 13 15 16 17 15 14 14 15 14 13 12 10 9 7 6 5 4 4 4 6 7 8 7 7 5 5 5 5 5 5 6 7
12 13 16 17 14 3 4 4 7 4 6 8 11 17 20 19 15 14 15 15 15 13 11 12 12 11 11 12 11 10 8 6 5 5 5 5 5 5 6 6 6 6 6 6 6 7 7 7 10
9 13 16 11 10 5 4 1 6 4 2 13 19 22 20 18 16 15 14 14 14 12 12 10 8 6 7 8 9 6 6 5 2 2 1 3 4 4 3 4 6 6 7 8 9 9 9 9 10
10 13 12 11 8 5 4 5 5 2 4 10 14 17 17 16 15 14 14 13 13 12 10 10 9 7 7 5 5 4 3 3 1 4 4 5 5 5 4 0 3 4 6 7 5 7 8 8 8
9 10 9 10 10 7 7 5 2 8 8 13 11 10 13 14 14 13 13 14 12 13 11 10 10 8 7 6 4 3 3 3 4 6 6 6 4 4 4 3 3 3 4 4 3 3 6 7 6
7 7 7 10 9 8 6 1 3 11 13 16 16 14 13 13 13 13 13 14 13 13 12 12 9 8 6 5 4 5 4 4 5 6 8 8 4 3 3 2 3 4 4 3 2 3 3 3 4
7 8 10 12 14 8 6 1 4 9 10 14 14 12 11 11 12 13 13 13 13 12 12 10 9 8 6 4 3 2 4 4 6 7 8 9 8 5 4 2 2 3 3 1 2 3 2 2 3
5 5 7 10 12 9 6 4 8 6 2 9 12 11 10 10 11 12 11 12 12 12 11 9 9 7 6 4 2 4 5 7 6 6 8 11 11 9 7 4 2 3 3 3 3 3 3 4 4
6 2 3 9 12 9 5 3 2 4 5 6 10 11 10 8 10 11 11 10 11 12 10 7 9 8 7 5 3 5 6 5 4 5 9 11 9 9 7 4 3 6 6 3 3 3 2 3 3
7 4 6 7 11 9 0 3 4 7 7 4 9 11 10 9 9 10 12 11 11 10 9 8 8 7 6 5 2 3 3 2 2 5 8 8 8 8 8 5 3 6 4 3 5 3 4 4 4
8 1 2 5 6 7 0 5 6 7 6 4 7 9 10 10 10 9 11 12 11 10 9 8 7 6 4 3 2 1 2 1 2 5 7 6 7 8 8 6 6 6 4 4 5 5 4 4 4
8 4 2 3 5 4 1 5 7 7 4 3 6 7 7 8 10 10 11 12 12 10 9 8 7 6 3 2 0 1 2 2 2 2 7 4 5 7 7 4 5 5 4 5 6 5 6 5 4
7 7 5 3 3 2 1 1 4 5 4 5 7 7 8 9 10 10 9 11 12 10 9 8 7 7 5 3 2 1 1 2 2 1 3 3 4 5 6 6 5 6 6 5 4 4 4 5 5
6 8 7 5 2 2 2 2 3 5 5 6 8 9 10 11 12 12 11 11 11 11 10 9 9 7 6 4 2 2 1 2 1 1 2 4 3 3 4 4 4 5 6 5 5 5 5 4 6
5 7 8 6 3 3 5 3 5 7 6 7 9 9 9 10 13 13 12 12 11 11 11 9 8 7 6 4 3 3 3 3 2 1 1 2 2 3 2 2 4 4 5 6 6 7 6 6 5
7 7 8 11 9 4 6 4 5 9 8 9 10 11 11 12 14 14 14 13 12 11 10 10 9 8 6 5 4 3 3 3 3 4 3 2 3 4 4 1 1 3 5 4 5 6 6 5 5
9 5 6 8 6 4 11 7 6 7 8 9 11 12 12 13 13 14 13 11 10 9 8 9 9 8 6 5 4 3 3 2 3 4 5 4 4 3 3 3 2 2 4 4 5 5 6 5 6
9 8 2 2 2 7 12 4 7 8 9 10 13 13 13 13 13 13 12 11 10 9 8 8 9 8 7 6 5 4 3 3 5 6 6 4 4 2 2 2 1 3 4 4 5 5 6 6 6
9 9 6 6 4 3 4 4 10 11 9 9 11 13 14 14 14 14 13 11 10 10 8 8 9 8 7 6 5 4 3 4 4 2 2 4 4 4 1 1 3 4 5 6 5 5 6 6 5
8 7 8 10 9 4 2 7 13 11 10 10 11 12 12 13 14 14 13 12 10 8 8 7 8 8 7 6 6 6 5 5 5 4 5 5 4 5 3 3 4 5 5 6 6 6 7 7 6
8 9 7 7 6 3 4 4 5 10 11 10 10 11 12 12 12 12 12 11 10 9 8 7 8 7 6 6 6 6 7 7 6 6 6 6 6 6 6 6 6 6 6 6 6 6 7 7 6
8 7 5 6 7 6 2 1 5 7 9 11 12 12 12 12 12 12 10 10 10 10 10 8 8 8 7 6 6 5 4 4 5 6 7 7 7 7 6 7 7 7 7 7 7 7 8 8 8
13 9 6 6 6 7 3 2 3 1 5 7 8 11 11 11 10 11 11 10 9 9 10 10 9 9 8 8 7 7 6 6 6 7 7 6 7 7 7 7 7 8 8 7 7 8 8 8 8
Wind_Direction
196 212 218 236 241 235 326 304 343 71 68 65 63 72 70 63 82 95 105 105 109 114 118 112 103 98 93 95 104 116 122 124 124 120 118 118 118 117 116 113 109 104 98 90 85 82 79 77 76
207 217 225 241 243 228 219 264 314 72 88 89 83 83 79 71 83 100 106 113 115 121 124 114 108 102 97 94 97 104 109 114 117 119 118 118 119 120 119 116 113 110 105 99 93 89 87 85 82
231 235 248 250 251 240 194 215 80 92 114 105 88 74 72 83 92 107 118 122 116 113 111 113 112 107 103 100 99 102 106 110 113 116 117 119 121 122 122 122 121 118 115 111 106 101 97 95 90
236 233 243 256 265 277 235 121 176 152 116 118 108 90 84 71 105 117 131 119 113 116 116 116 114 111 108 105 103 103 105 108 110 113 116 120 123 127 130 133 131 131 131 128 125 122 118 113 108
240 255 250 262 269 285 313 300 253 112 120 114 100 104 101 90 110 127 133 118 124 119 119 122 119 115 112 109 108 108 108 109 109 110 114 120 127 135 142 152 153 153 157 160 158 152 150 151 154
245 256 263 268 271 247 291 288 258 127 126 119 112 114 110 119 124 133 125 125 122 120 121 125 125 124 122 121 118 115 113 113 114 117 123 132 148 177 194 198 204 204 193 188 187 192 185 186 195
258 276 279 281 281 247 241 285 314 85 97 117 120 116 127 134 130 127 122 119 120 121 127 136 138 137 137 136 133 132 132 132 136 148 165 191 216 224 226 225 225 220 211 209 211 217 214 209 210
259 279 282 280 280 265 158 353 8 89 73 95 117 128 135 138 139 128 120 111 114 119 131 139 143 147 153 150 149 150 152 157 172 187 202 226 240 234 230 231 220 222 223 224 226 231 231 223 219
264 265 270 279 300 335 63 23 330 26 100 83 73 105 128 138 139 136 125 117 113 111 112 122 133 147 156 153 151 161 167 178 199 204 217 240 261 261 224 221 204 211 222 232 235 236 237 231 226
249 260 271 305 339 5 33 66 265 272 121 89 88 102 124 138 141 140 133 129 122 111 106 106 112 115 119 125 136 150 152 152 186 118 208 264 289 300 278 188 193 211 228 238 237 238 238 235 236
261 270 301 323 332 339 304 255 244 196 69 79 101 119 133 140 141 137 133 129 125 116 107 109 99 78 75 84 97 79 78 95 91 70 25 358 332 316 315 299 206 226 242 245 245 232 242 242 245
275 294 317 315 312 294 272 282 31 61 90 102 109 135 144 146 137 132 129 123 120 112 107 98 91 81 65 59 64 68 51 41 41 46 30 15 346 336 347 342 325 287 266 247 262 249 255 258 256
272 295 317 321 310 292 277 256 96 89 105 127 150 163 153 138 128 122 118 116 117 112 99 93 94 90 79 60 33 62 58 30 55 45 41 18 353 355 358 332 310 290 276 248 237 242 263 271 270
332 350 354 331 310 284 258 203 93 104 127 141 146 139 130 123 121 116 115 116 114 112 110 110 106 101 97 89 67 59 70 59 48 50 41 23 8 7 350 318 298 290 283 282 271 267 259 249 251
332 345 343 306 297 296 298 32 24 28 126 136 128 127 125 126 121 120 119 120 119 116 114 118 117 111 103 89 61 68 54 48 43 46 50 36 15 1 345 322 314 353 339 325 287 281 269 258 250
312 308 295 276 272 271 283 35 357 287 264 151 134 130 125 119 116 117 115 116 120 121 127 137 121 115 103 86 47 62 49 42 36 44 57 39 3 356 341 330 1 356 332 310 289 263 285 301 312
287 247 228 259 271 270 197 111 208 241 259 197 147 136 132 130 123 123 125 125 125 125 122 111 114 123 118 113 94 92 103 64 30 63 64 31 356 3 351 334 351 336 326 325 322 15 8 341 333
306 280 186 237 257 274 74 137 176 223 237 208 137 133 139 143 136 131 128 131 132 131 127 127 132 124 136 137 131 127 87 43 40 81 78 34 1 16 354 321 8 353 336 343 348 349 332 301 279
328 339 299 265 256 279 163 157 174 200 185 149 128 133 137 146 139 141 143 144 144 143 144 153 153 144 162 157 129 25 44 357 1 89 93 41 16 9 326 342 351 334 343 345 332 340 324 306 283
328 317 306 265 245 276 1 132 152 164 161 151 142 154 152 151 146 151 155 160 156 157 160 164 169 170 183 165 165 189 250 285 273 64 126 100 42 355 341 25 340 351 342 316 321 328 315 312 321
323 303 284 272 193 59 7 300 201 169 157 150 158 166 167 167 162 163 174 173 168 170 176 185 182 176 185 183 225 266 220 273 297 45 65 69 26 339 341 341 341 346 326 339 345 331 329 320 315
290 280 299 309 277 244 209 222 206 180 177 182 174 170 170 173 167 170 182 182 184 183 186 187 177 179 181 192 230 271 291 307 331 344 73 62 304 279 307 334 349 348 326 324 330 19 342 329 318
304 324 355 5 340 327 268 239 176 177 185 189 182 180 178 178 176 180 188 189 194 194 190 182 173 175 181 195 212 238 287 326 357 8 352 322 264 227 221 201 353 331 305 328 353 334 329 319 313
304 314 14 18 356 304 248 237 157 175 184 178 177 179 180 182 182 182 189 188 193 196 186 171 163 169 176 188 216 219 261 301 317 313 302 291 282 242 188 177 122 308 308 342 334 316 306 309 318
289 290 335 16 232 237 236 208 133 148 155 165 170 175 180 184 185 183 191 190 191 195 184 169 158 164 174 189 206 216 233 260 256 254 267 275 292 303 98 76 67 297 304 296 282 283 282 286 289
268 285 304 300 285 247 208 133 137 135 136 148 158 166 177 185 189 191 193 193 189 192 185 174 159 163 174 191 199 202 219 254 270 284 316 314 304 303 345 229 239 248 259 274 283 290 285 279 278
292 298 300 296 305 331 343 105 123 139 149 156 160 164 179 187 190 192 192 192 185 181 172 167 155 162 179 194 189 192 209 236 276 304 282 268 268 280 295 291 273 264 259 262 269 269 277 284 278
276 300 309 316 320 336 16 356 153 163 166 169 172 175 180 185 191 191 187 183 173 170 159 157 152 162 177 197 206 217 202 212 225 243 267 282 288 283 279 272 273 272 266 260 256 262 265 268 268
275 266 293 309 322 331 11 311 160 177 171 178 184 183 182 187 190 182 177 171 169 170 162 161 160 167 182 203 213 236 237 241 239 237 244 250 255 264 268 267 265 266 265 261 255 254 260 265 266
308 289 272 287 312 308 325 85 82 121 155 169 181 177 181 184 184 175 166 161 169 176 169 168 172 181 190 199 203 210 219 231 244 253 253 254 255 256 261 263 266 265 267 266 266 267 269 267 268
Height
1513 1513 1514 1517 1514 1512 1517 1500 1476 1470 1471 1472 1474 1477 1486 1492 1501 1514 1517 1517 1518 1521 1525 1528 1531 1534 1536 1539 1541 1543 1545 1546 1548 1549 1550 1551 1552 1553 1554 1555 1555 1556 1557 1558 1558 1559 1559 1560 1561
1513 1513 1517 1513 1506 1516 1520 1497 1481 1472 1472 1473 1475 1480 1488 1498 1504 1511 1516 1519 1520 1523 1526 1529 1532 1535 1538 1540 1542 1544 1546 1548 1549 1550 1551 1552 1553 1554 1555 1556 1556 1557 1558 1559 1560 1560 1561 1561 1562
1513 1515 1515 1502 1494 1500 1503 1483 1475 1472 1472 1473 1477 1483 1492 1502 1507 1512 1517 1520 1522 1525 1527 1531 1533 1536 1539 1541 1544 1546 1547 1549 1550 1551 1552 1553 1554 1555 1556 1557 1557 1558 1559 1560 1560 1561 1562 1563 1563
1514 1514 1509 1497 1487 1476 1475 1473 1471 1470 1472 1474 1478 1489 1499 1504 1508 1513 1518 1521 1523 1526 1529 1532 1535 1538 1540 1542 1545 1546 1548 1550 1551 1552 1553 1554 1555 1556 1556 1557 1558 1559 1559 1560 1561 1562 1563 1563 1564
1515 1510 1501 1493 1480 1472 1471 1470 1470 1470 1473 1475 1478 1491 1501 1506 1509 1514 1519 1522 1525 1527 1530 1534 1536 1539 1541 1543 1545 1547 1549 1550 1551 1552 1553 1554 1555 1556 1557 1557 1558 1559 1560 1561 1561 1562 1563 1564 1565
1513 1503 1499 1491 1477 1472 1473 1473 1468 1470 1473 1478 1483 1491 1502 1506 1510 1515 1519 1523 1526 1528 1531 1535 1537 1540 1542 1544 1546 1548 1549 1550 1552 1553 1554 1554 1555 1556 1557 1557 1558 1559 1560 1561 1561 1562 1563 1564 1565
1510 1502 1496 1485 1476 1473 1475 1474 1471 1472 1475 1478 1483 1491 1502 1506 1510 1515 1521 1525 1527 1530 1532 1535 1538 1541 1543 1545 1547 1548 1549 1551 1552 1553 1553 1554 1555 1556 1557 1557 1558 1559 1559 1560 1561 1562 1563 1563 1564
1507 1502 1495 1484 1475 1472 1471 1476 1477 1478 1479 1479 1484 1490 1500 1506 1510 1516 1521 1525 1528 1531 1534 1536 1539 1542 1543 1545 1547 1548 1549 1550 1551 1552 1553 1554 1555 1555 1556 1556 1557 1557 1558 1559 1560 1561 1562 1562 1563
1505 1504 1498 1483 1474 1473 1474 1479 1481 1481 1484 1484 1484 1488 1498 1505 1511 1517 1522 1527 1530 1533 1536 1539 1541 1543 1545 1546 1547 1548 1549 1550 1551 1552 1552 1553 1554 1555 1555 1555 1556 1556 1557 1558 1559 1559 1560 1561 1562
1500 1499 1489 1478 1475 1476 1479 1483 1485 1485 1484 1487 1488 1494 1503 1508 1512 1517 1523 1528 1531 1534 1537 1539 1542 1544 1546 1548 1548 1549 1550 1551 1551 1552 1552 1553 1553 1554 1554 1554 1554 1555 1555 1556 1557 1558 1558 1559 1560
1495 1492 1484 1481 1481 1481 1482 1484 1484 1486 1490 1494 1495 1498 1507 1511 1514 1519 1524 1528 1531 1534 1537 1540 1541 1543 1546 1548 1549 1550 1551 1551 1552 1551 1551 1552 1552 1553 1553 1553 1553 1553 1553 1554 1554 1555 1556 1557 1558
1494 1489 1488 1487 1485 1483 1484 1485 1486 1488 1495 1494 1499 1506 1510 1513 1515 1520 1524 1528 1531 1533 1536 1539 1540 1543 1545 1547 1549 1550 1551 1551 1551 1551 1550 1550 1550 1550 1550 1551 1551 1551 1552 1552 1552 1553 1554 1555 1556
1492 1490 1490 1489 1488 1485 1484 1485 1488 1495 1497 1497 1506 1510 1512 1514 1517 1521 1524 1528 1531 1534 1536 1538 1540 1542 1544 1547 1548 1550 1550 1551 1551 1550 1549 1549 1549 1548 1548 1548 1548 1549 1549 1549 1550 1550 1551 1552 1553
1493 1492 1492 1492 1489 1487 1486 1487 1490 1497 1500 1504 1508 1510 1512 1515 1518 1522 1526 1529 1531 1533 1536 1538 1540 1542 1544 1546 1548 1550 1550 1550 1550 1549 1548 1547 1547 1546 1545 1546 1546 1546 1547 1547 1548 1548 1549 1550 1550
1494 1496 1499 1496 1493 1490 1489 1495 1500 1500 1503 1504 1507 1510 1514 1516 1519 1522 1525 1528 1531 1533 1536 1538 1540 1542 1545 1547 1548 1550 1550 1550 1549 1549 1548 1546 1545 1544 1544 1544 1544 1544 1545 1545 1546 1546 1547 1548 1548
1495 1502 1512 1503 1496 1493 1495 1510 1507 1506 1506 1506 1508 1511 1514 1517 1519 1522 1525 1528 1530 1533 1536 1539 1541 1543 1545 1547 1548 1549 1549 1549 1549 1548 1546 1544 1543 1542 1542 1542 1542 1542 1543 1543 1544 1545 1545 1545 1546
1498 1508 1513 1507 1496 1491 1495 1511 1508 1507 1508 1508 1507 1510 1514 1516 1519 1522 1525 1528 1531 1533 1536 1538 1541 1543 1545 1546 1548 1548 1548 1548 1548 1547 1544 1543 1542 1541 1540 1540 1541 1541 1541 1542 1543 1543 1542 1542 1542
1498 1501 1504 1505 1494 1492 1496 1504 1505 1504 1506 1507 1507 1510 1513 1516 1519 1522 1525 1528 1531 1534 1536 1539 1541 1543 1545 1546 1547 1548 1548 1547 1547 1546 1543 1542 1541 1540 1539 1539 1539 1539 1539 1540 1540 1540 1540 1540 1540
1485 1491 1497 1495 1489 1490 1495 1500 1504 1504 1505 1506 1507 1510 1514 1517 1519 1522 1525 1528 1532 1534 1536 1539 1541 1543 1544 1545 1546 1547 1547 1546 1546 1545 1542 1541 1540 1539 1538 1538 1537 1538 1538 1538 1538 1538 1538 1538 1539
1485 1492 1493 1490 1486 1489 1495 1498 1498 1501 1503 1505 1508 1511 1514 1517 1519 1522 1525 1529 1531 1534 1536 1538 1540 1542 1543 1544 1545 1545 1545 1545 1545 1544 1542 1540 1539 1538 1538 1536 1536 1536 1536 1536 1536 1536 1536 1536 1537
1487 1492 1489 1487 1486 1492 1500 1505 1500 1500 1503 1505 1508 1511 1514 1515 1518 1521 1525 1529 1531 1533 1535 1537 1539 1541 1542 1543 1543 1544 1544 1544 1544 1543 1542 1540 1538 1537 1536 1535 1534 1533 1534 1534 1534 1534 1534 1534 1535
1489 1481 1480 1483 1492 1503 1504 1516 1503 1499 1501 1504 1506 1509 1511 1514 1518 1521 1525 1528 1530 1532 1534 1536 1537 1539 1540 1541 1541 1542 1542 1542 1542 1541 1540 1538 1537 1536 1535 1534 1533 1532 1532 1532 1532 1532 1532 1532 1532
1479 1476 1482 1491 1501 1507 1506 1506 1503 1495 1499 1499 1502 1506 1509 1513 1516 1520 1523 1526 1528 1531 1533 1534 1535 1537 1538 1538 1539 1539 1540 1540 1539 1538 1538 1537 1536 1535 1534 1533 1532 1531 1531 1531 1530 1529 1529 1529 1530
1475 1479 1490 1501 1514 1528 1507 1500 1503 1493 1493 1493 1498 1502 1507 1511 1514 1518 1521 1524 1527 1529 1531 1533 1533 1535 1535 1536 1537 1537 1537 1536 1536 1536 1535 1535 1535 1534 1533 1532 1531 1530 1530 1529 1528 1527 1527 1527 1527
1478 1487 1511 1528 1533 1523 1489 1489 1494 1483 1483 1488 1493 1499 1504 1509 1512 1516 1519 1522 1524 1527 1529 1531 1531 1532 1533 1534 1534 1534 1534 1534 1534 1533 1533 1533 1533 1533 1532 1531 1530 1529 1528 1527 1526 1526 1525 1525 1525
1477 1480 1501 1514 1511 1498 1482 1487 1484 1477 1481 1486 1490 1496 1501 1505 1509 1512 1516 1519 1521 1524 1526 1528 1529 1530 1531 1532 1532 1532 1532 1532 1532 1532 1531 1531 1531 1531 1530 1529 1527 1526 1525 1525 1524 1523 1523 1523 1522
1477 1477 1473 1482 1484 1496 1492 1481 1481 1478 1481 1484 1488 1493 1498 1502 1505 1509 1512 1515 1518 1521 1524 1526 1527 1528 1529 1529 1530 1529 1529 1529 1529 1529 1529 1528 1528 1528 1528 1526 1525 1524 1523 1522 1521 1520 1520 1520 1519
1471 1471 1474 1484 1498 1506 1508 1500 1492 1482 1482 1482 1486 1490 1494 1498 1502 1505 1509 1512 1515 1518 1521 1523 1524 1525 1526 1527 1527 1528 1527 1526 1526 1526 1526 1525 1525 1524 1523 1523 1522 1521 1520 1519 1518 1517 1517 1516 1515
1477 1475 1476 1478 1482 1500 1518 1510 1479 1477 1476 1479 1482 1486 1490 1494 1498 1501 1505 1509 1513 1516 1518 1520 1521 1523 1523 1524 1524 1525 1525 1524 1524 1523 1522 1522 1521 1520 1520 1519 1518 1517 1516 1515 1514 1513 1512 1512 1511
1476 1473 1475 1488 1491 1486 1496 1500 1473 1472 1472 1475 1477 1482 1486 1490 1494 1498 1502 1506 1510 1513 1515 1517 1518 1519 1520 1521 1521 1521 1521 1521 1520 1520 1519 1519 1518 1517 1516 1515 1514 1513 1512 1511 1510 1509 1508 1507 1507